iso_date,epoch_date,Year,Hour,Min,DOY,POS_DOY,Lat,Lon,BP,Ts,Ta,has_bp,has_ts,has_ta,BuoyID,Buoy_Type,Buoy_Owner,Logistics,Hemisphere
2017-12-16T10:09:07Z,1513418947,2017,10,9,350.423,350.423,-61.4736,0.015,981.7,17.92,-999.0,yes,yes,no,300234063479520,BD2GI,AOML,SA_AGULHAS,South
2017-12-16T10:59:31Z,1513421971,2017,11,0,350.458,350.458,-61.4936,0.0044,981.6,-1.26,-999.0,yes,yes,no,300234063479520,BD2GI,AOML,SA_AGULHAS,South
2017-12-16T12:00:00Z,1513425600,2017,12,0,350.5,350.5,-61.4908,0.001,980.9,-1.26,-999.0,yes,yes,no,300234063479520,BD2GI,AOML,SA_AGULHAS,South
2017-12-16T13:00:28Z,1513429229,2017,13,0,350.542,350.542,-61.4904,-0.0032,979.9,-1.23,-999.0,yes,yes,no,300234063479520,BD2GI,AOML,SA_AGULHAS,South
2017-12-16T13:59:31Z,1513432771,2017,14,0,350.583,350.583,-61.4934,-0.0084,979.0,-1.26,-999.0,yes,yes,no,300234063479520,BD2GI,AOML,SA_AGULHAS,South
2017-12-16T15:00:00Z,1513436400,2017,15,0,350.625,350.625,-61.4958,-0.0112,977.9,-1.26,-999.0,yes,yes,no,300234063479520,BD2GI,AOML,SA_AGULHAS,South
2017-12-16T16:00:28Z,1513440029,2017,16,0,350.667,350.667,-61.5002,-0.0126,976.8,-1.26,-999.0,yes,yes,no,300234063479520,BD2GI,AOML,SA_AGULHAS,South
2017-12-16T16:59:31Z,1513443571,2017,17,0,350.708,350.708,-61.5046,-0.0094,976.0,-1.23,-999.0,yes,yes,no,300234063479520,BD2GI,AOML,SA_AGULHAS,South
2017-12-16T18:00:00Z,1513447200,2017,18,0,350.75,350.75,-61.509,-0.0006,975.1,-1.23,-999.0,yes,yes,no,300234063479520,BD2GI,AOML,SA_AGULHAS,South
2017-12-16T19:00:28Z,1513450829,2017,19,0,350.792,350.792,-61.5116,0.0132,974.4,-1.23,-999.0,yes,yes,no,300234063479520,BD2GI,AOML,SA_AGULHAS,South
2017-12-16T19:59:31Z,1513454371,2017,20,0,350.833,350.833,-61.512,0.0312,973.7,-1.23,-999.0,yes,yes,no,300234063479520,BD2GI,AOML,SA_AGULHAS,South
2017-12-16T21:00:00Z,1513458000,2017,21,0,350.875,350.875,-61.5104,0.0538,973.2,-1.23,-999.0,yes,yes,no,300234063479520,BD2GI,AOML,SA_AGULHAS,South
2017-12-16T22:00:28Z,1513461629,2017,22,0,350.917,350.917,-61.507,0.0698,972.3,-1.23,-999.0,yes,yes,no,300234063479520,BD2GI,AOML,SA_AGULHAS,South
2017-12-16T22:59:31Z,1513465171,2017,23,0,350.958,350.958,-61.5042,0.083,971.6,-1.23,-999.0,yes,yes,no,300234063479520,BD2GI,AOML,SA_AGULHAS,South
2017-12-17T00:00:00Z,1513468800,2017,0,0,351.0,351.0,-61.501,0.0886,970.9,-1.26,-999.0,yes,yes,no,300234063479520,BD2GI,AOML,SA_AGULHAS,South
2017-12-17T01:00:28Z,1513472429,2017,1,0,351.042,351.042,-61.498,0.0892,970.2,-1.26,-999.0,yes,yes,no,300234063479520,BD2GI,AOML,SA_AGULHAS,South
2017-12-17T01:59:31Z,1513475971,2017,2,0,351.083,351.083,-61.497,0.0848,969.7,-1.26,-999.0,yes,yes,no,300234063479520,BD2GI,AOML,SA_AGULHAS,South
2017-12-17T03:00:00Z,1513479600,2017,3,0,351.125,351.125,-61.4974,0.0752,969.6,-1.29,-999.0,yes,yes,no,300234063479520,BD2GI,AOML,SA_AGULHAS,South
2017-12-17T04:00:28Z,1513483229,2017,4,0,351.167,351.167,-61.4986,0.065,969.9,-1.33,-999.0,yes,yes,no,300234063479520,BD2GI,AOML,SA_AGULHAS,South
2017-12-17T04:59:31Z,1513486771,2017,5,0,351.208,351.208,-61.4984,0.0568,970.2,-1.29,-999.0,yes,yes,no,300234063479520,BD2GI,AOML,SA_AGULHAS,South
2017-12-17T06:00:00Z,1513490400,2017,6,0,351.25,351.25,-61.497,0.0504,970.9,-1.29,-999.0,yes,yes,no,300234063479520,BD2GI,AOML,SA_AGULHAS,South
2017-12-17T07:00:28Z,1513494029,2017,7,0,351.292,351.292,-61.495,0.0554,971.9,-1.29,-999.0,yes,yes,no,300234063479520,BD2GI,AOML,SA_AGULHAS,South
2017-12-17T07:59:31Z,1513497571,2017,8,0,351.333,351.333,-61.4938,0.0662,972.7,-1.29,-999.0,yes,yes,no,300234063479520,BD2GI,AOML,SA_AGULHAS,South
2017-12-17T09:00:00Z,1513501200,2017,9,0,351.375,351.375,-61.492,0.077,973.7,-1.29,-999.0,yes,yes,no,300234063479520,BD2GI,AOML,SA_AGULHAS,South
2017-12-17T10:00:28Z,1513504829,2017,10,0,351.417,351.417,-61.492,0.077,974.5,-1.26,-999.0,yes,yes,no,300234063479520,BD2GI,AOML,SA_AGULHAS,South
2017-12-17T10:59:31Z,1513508371,2017,11,0,351.458,351.458,-61.4868,0.0978,975.3,-1.26,-999.0,yes,yes,no,300234063479520,BD2GI,AOML,SA_AGULHAS,South
2017-12-17T12:00:00Z,1513512000,2017,12,0,351.5,351.5,-61.4834,0.1024,976.1,-1.26,-999.0,yes,yes,no,300234063479520,BD2GI,AOML,SA_AGULHAS,South
2017-12-17T13:00:28Z,1513515629,2017,13,0,351.542,351.542,-61.4848,0.096,976.4,-1.26,-999.0,yes,yes,no,300234063479520,BD2GI,AOML,SA_AGULHAS,South
2017-12-17T13:59:31Z,1513519171,2017,14,0,351.583,351.583,-61.4784,0.0924,976.9,-1.23,-999.0,yes,yes,no,300234063479520,BD2GI,AOML,SA_AGULHAS,South
2017-12-17T15:00:00Z,1513522800,2017,15,0,351.625,351.625,-61.4776,0.0818,977.2,-1.23,-999.0,yes,yes,no,300234063479520,BD2GI,AOML,SA_AGULHAS,South
2017-12-17T16:00:28Z,1513526429,2017,16,0,351.667,351.667,-61.4786,0.0664,977.3,-1.19,-999.0,yes,yes,no,300234063479520,BD2GI,AOML,SA_AGULHAS,South
2017-12-17T16:59:31Z,1513529971,2017,17,0,351.708,351.708,-61.4818,0.051,976.9,-1.23,-999.0,yes,yes,no,300234063479520,BD2GI,AOML,SA_AGULHAS,South
2017-12-17T18:00:00Z,1513533600,2017,18,0,351.75,351.75,-61.4848,0.0352,976.5,-1.23,-999.0,yes,yes,no,300234063479520,BD2GI,AOML,SA_AGULHAS,South
2017-12-17T19:00:28Z,1513537229,2017,19,0,351.792,351.792,-61.4896,0.0206,976.3,-1.23,-999.0,yes,yes,no,300234063479520,BD2GI,AOML,SA_AGULHAS,South
2017-12-17T19:59:31Z,1513540771,2017,20,0,351.833,351.833,-61.4948,0.01,975.7,-1.23,-999.0,yes,yes,no,300234063479520,BD2GI,AOML,SA_AGULHAS,South
2017-12-17T21:00:00Z,1513544400,2017,21,0,351.875,351.875,-61.4986,0.0086,975.2,-1.23,-999.0,yes,yes,no,300234063479520,BD2GI,AOML,SA_AGULHAS,South
2017-12-17T22:00:28Z,1513548029,2017,22,0,351.917,351.917,-61.499,0.0078,974.9,-1.23,-999.0,yes,yes,no,300234063479520,BD2GI,AOML,SA_AGULHAS,South
2017-12-17T22:59:31Z,1513551571,2017,23,0,351.958,351.958,-61.4972,0.0094,974.0,-1.23,-999.0,yes,yes,no,300234063479520,BD2GI,AOML,SA_AGULHAS,South
2017-12-18T00:00:00Z,1513555200,2017,0,0,352.0,352.0,-61.4926,0.0088,973.6,-1.23,-999.0,yes,yes,no,300234063479520,BD2GI,AOML,SA_AGULHAS,South
2017-12-18T01:00:28Z,1513558829,2017,1,0,352.042,352.042,-61.4854,0.0062,973.0,-1.23,-999.0,yes,yes,no,300234063479520,BD2GI,AOML,SA_AGULHAS,South
2017-12-18T01:59:31Z,1513562371,2017,2,0,352.083,352.083,-61.478,-0.0018,972.7,-1.26,-999.0,yes,yes,no,300234063479520,BD2GI,AOML,SA_AGULHAS,South
2017-12-18T03:00:00Z,1513566000,2017,3,0,352.125,352.125,-61.471,-0.0148,972.7,-1.26,-999.0,yes,yes,no,300234063479520,BD2GI,AOML,SA_AGULHAS,South
2017-12-18T04:00:28Z,1513569629,2017,4,0,352.167,352.167,-61.4668,-0.0272,973.1,-1.26,-999.0,yes,yes,no,300234063479520,BD2GI,AOML,SA_AGULHAS,South
2017-12-18T04:59:31Z,1513573171,2017,5,0,352.208,352.208,-61.4624,-0.039,973.6,-1.26,-999.0,yes,yes,no,300234063479520,BD2GI,AOML,SA_AGULHAS,South
2017-12-18T06:00:00Z,1513576800,2017,6,0,352.25,352.25,-61.458,-0.0508,974.3,-1.26,-999.0,yes,yes,no,300234063479520,BD2GI,AOML,SA_AGULHAS,South
2017-12-18T07:00:28Z,1513580429,2017,7,0,352.292,352.292,-61.4542,-0.0586,975.5,-1.26,-999.0,yes,yes,no,300234063479520,BD2GI,AOML,SA_AGULHAS,South
2017-12-18T07:59:31Z,1513583971,2017,8,0,352.333,352.333,-61.4528,-0.064,976.8,-1.26,-999.0,yes,yes,no,300234063479520,BD2GI,AOML,SA_AGULHAS,South
2017-12-18T09:00:00Z,1513587600,2017,9,0,352.375,352.375,-61.4516,-0.0616,977.8,-1.26,-999.0,yes,yes,no,300234063479520,BD2GI,AOML,SA_AGULHAS,South
2017-12-18T10:00:28Z,1513591229,2017,10,0,352.417,352.417,-61.449,-0.0554,979.0,-1.23,-999.0,yes,yes,no,300234063479520,BD2GI,AOML,SA_AGULHAS,South
2017-12-18T10:59:31Z,1513594771,2017,11,0,352.458,352.458,-61.4458,-0.045,980.4,-1.23,-999.0,yes,yes,no,300234063479520,BD2GI,AOML,SA_AGULHAS,South
2017-12-18T12:00:00Z,1513598400,2017,12,0,352.5,352.5,-61.442,-0.0334,980.9,-1.23,-999.0,yes,yes,no,300234063479520,BD2GI,AOML,SA_AGULHAS,South
2017-12-18T13:00:28Z,1513602029,2017,13,0,352.542,352.542,-61.4368,-0.0212,981.9,-1.19,-999.0,yes,yes,no,300234063479520,BD2GI,AOML,SA_AGULHAS,South
2017-12-18T13:59:31Z,1513605571,2017,14,0,352.583,352.583,-61.4306,-0.011,982.9,-1.19,-999.0,yes,yes,no,300234063479520,BD2GI,AOML,SA_AGULHAS,South
2017-12-18T15:00:00Z,1513609200,2017,15,0,352.625,352.625,-61.4256,-0.004,983.4,-1.19,-999.0,yes,yes,no,300234063479520,BD2GI,AOML,SA_AGULHAS,South
2017-12-18T16:00:28Z,1513612829,2017,16,0,352.667,352.667,-61.42,0.0012,984.3,-1.16,-999.0,yes,yes,no,300234063479520,BD2GI,AOML,SA_AGULHAS,South
2017-12-18T16:59:31Z,1513616371,2017,17,0,352.708,352.708,-61.4156,0.001,984.5,-1.16,-999.0,yes,yes,no,300234063479520,BD2GI,AOML,SA_AGULHAS,South
2017-12-18T18:00:00Z,1513620000,2017,18,0,352.75,352.75,-61.412,-0.0034,984.4,-1.16,-999.0,yes,yes,no,300234063479520,BD2GI,AOML,SA_AGULHAS,South
2017-12-18T19:00:28Z,1513623629,2017,19,0,352.792,352.792,-61.4106,-0.009,984.8,-1.16,-999.0,yes,yes,no,300234063479520,BD2GI,AOML,SA_AGULHAS,South
2017-12-18T19:59:31Z,1513627171,2017,20,0,352.833,352.833,-61.4116,-0.0146,984.8,-1.16,-999.0,yes,yes,no,300234063479520,BD2GI,AOML,SA_AGULHAS,South
2017-12-18T21:00:00Z,1513630800,2017,21,0,352.875,352.875,-61.414,-0.0178,984.7,-1.16,-999.0,yes,yes,no,300234063479520,BD2GI,AOML,SA_AGULHAS,South
2017-12-18T22:00:28Z,1513634429,2017,22,0,352.917,352.917,-61.4174,-0.0176,984.4,-1.16,-999.0,yes,yes,no,300234063479520,BD2GI,AOML,SA_AGULHAS,South
2017-12-18T22:59:31Z,1513637971,2017,23,0,352.958,352.958,-61.4218,-0.0132,983.7,-1.16,-999.0,yes,yes,no,300234063479520,BD2GI,AOML,SA_AGULHAS,South
2017-12-19T00:00:00Z,1513641600,2017,0,0,353.0,353.0,-61.4256,-0.0062,983.1,-1.16,-999.0,yes,yes,no,300234063479520,BD2GI,AOML,SA_AGULHAS,South
2017-12-19T01:00:28Z,1513645229,2017,1,0,353.042,353.042,-61.4288,0.0024,982.0,-1.19,-999.0,yes,yes,no,300234063479520,BD2GI,AOML,SA_AGULHAS,South
2017-12-19T01:59:31Z,1513648771,2017,2,0,353.083,353.083,-61.43,0.0118,980.9,-1.19,-999.0,yes,yes,no,300234063479520,BD2GI,AOML,SA_AGULHAS,South
2017-12-19T03:00:00Z,1513652400,2017,3,0,353.125,353.125,-61.4304,0.021,979.6,-1.19,-999.0,yes,yes,no,300234063479520,BD2GI,AOML,SA_AGULHAS,South
2017-12-19T04:00:28Z,1513656029,2017,4,0,353.167,353.167,-61.429,0.0274,978.5,-1.19,-999.0,yes,yes,no,300234063479520,BD2GI,AOML,SA_AGULHAS,South
2017-12-19T04:59:31Z,1513659571,2017,5,0,353.208,353.208,-61.4284,0.029,977.3,-1.19,-999.0,yes,yes,no,300234063479520,BD2GI,AOML,SA_AGULHAS,South
2017-12-19T06:00:00Z,1513663200,2017,6,0,353.25,353.25,-61.4274,0.0248,976.3,-1.23,-999.0,yes,yes,no,300234063479520,BD2GI,AOML,SA_AGULHAS,South
2017-12-19T07:00:28Z,1513666829,2017,7,0,353.292,353.292,-61.4262,0.0184,974.8,-1.19,-999.0,yes,yes,no,300234063479520,BD2GI,AOML,SA_AGULHAS,South
2017-12-19T07:59:31Z,1513670371,2017,8,0,353.333,353.333,-61.4274,0.0094,973.4,-1.23,-999.0,yes,yes,no,300234063479520,BD2GI,AOML,SA_AGULHAS,South
2017-12-19T09:00:00Z,1513674000,2017,9,0,353.375,353.375,-61.4294,-0.0004,972.6,-1.23,-999.0,yes,yes,no,300234063479520,BD2GI,AOML,SA_AGULHAS,South
2017-12-19T10:00:28Z,1513677629,2017,10,0,353.417,353.417,-61.4322,-0.0078,971.7,-1.19,-999.0,yes,yes,no,300234063479520,BD2GI,AOML,SA_AGULHAS,South
2017-12-19T10:59:31Z,1513681171,2017,11,0,353.458,353.458,-61.435,-0.0146,971.1,-1.19,-999.0,yes,yes,no,300234063479520,BD2GI,AOML,SA_AGULHAS,South
2017-12-19T12:00:00Z,1513684800,2017,12,0,353.5,353.5,-61.4384,-0.0188,970.6,-1.19,-999.0,yes,yes,no,300234063479520,BD2GI,AOML,SA_AGULHAS,South
2017-12-19T13:00:28Z,1513688429,2017,13,0,353.542,353.542,-61.4412,-0.0192,970.9,-1.16,-999.0,yes,yes,no,300234063479520,BD2GI,AOML,SA_AGULHAS,South
2017-12-19T13:59:31Z,1513691971,2017,14,0,353.583,353.583,-61.4412,-0.0204,971.5,-1.16,-999.0,yes,yes,no,300234063479520,BD2GI,AOML,SA_AGULHAS,South
2017-12-19T15:00:00Z,1513695600,2017,15,0,353.625,353.625,-61.441,-0.0228,972.2,-1.12,-999.0,yes,yes,no,300234063479520,BD2GI,AOML,SA_AGULHAS,South
2017-12-19T16:00:28Z,1513699229,2017,16,0,353.667,353.667,-61.4386,-0.0264,972.8,-1.09,-999.0,yes,yes,no,300234063479520,BD2GI,AOML,SA_AGULHAS,South
2017-12-19T16:59:31Z,1513702771,2017,17,0,353.708,353.708,-61.4364,-0.031,973.5,-1.09,-999.0,yes,yes,no,300234063479520,BD2GI,AOML,SA_AGULHAS,South
2017-12-19T18:00:00Z,1513706400,2017,18,0,353.75,353.75,-61.4326,-0.0366,974.3,-1.09,-999.0,yes,yes,no,300234063479520,BD2GI,AOML,SA_AGULHAS,South
2017-12-19T19:00:28Z,1513710029,2017,19,0,353.792,353.792,-61.4264,-0.0432,975.2,-1.09,-999.0,yes,yes,no,300234063479520,BD2GI,AOML,SA_AGULHAS,South
2017-12-19T19:59:31Z,1513713571,2017,20,0,353.833,353.833,-61.4198,-0.0558,975.8,-1.09,-999.0,yes,yes,no,300234063479520,BD2GI,AOML,SA_AGULHAS,South
2017-12-19T21:00:00Z,1513717200,2017,21,0,353.875,353.875,-61.4146,-0.0678,976.6,-1.12,-999.0,yes,yes,no,300234063479520,BD2GI,AOML,SA_AGULHAS,South
2017-12-19T22:00:28Z,1513720829,2017,22,0,353.917,353.917,-61.4102,-0.079,977.0,-1.12,-999.0,yes,yes,no,300234063479520,BD2GI,AOML,SA_AGULHAS,South
2017-12-19T22:59:31Z,1513724371,2017,23,0,353.958,353.958,-61.4056,-0.0868,977.3,-1.12,-999.0,yes,yes,no,300234063479520,BD2GI,AOML,SA_AGULHAS,South
2017-12-20T00:00:00Z,1513728000,2017,0,0,354.0,354.0,-61.4028,-0.0916,977.6,-1.12,-999.0,yes,yes,no,300234063479520,BD2GI,AOML,SA_AGULHAS,South
2017-12-20T01:00:28Z,1513731629,2017,1,0,354.042,354.042,-61.4,-0.0932,977.5,-1.12,-999.0,yes,yes,no,300234063479520,BD2GI,AOML,SA_AGULHAS,South
2017-12-20T01:59:31Z,1513735171,2017,2,0,354.083,354.083,-61.398,-0.0928,977.3,-1.12,-999.0,yes,yes,no,300234063479520,BD2GI,AOML,SA_AGULHAS,South
2017-12-20T03:00:00Z,1513738800,2017,3,0,354.125,354.125,-61.397,-0.0888,977.0,-1.09,-999.0,yes,yes,no,300234063479520,BD2GI,AOML,SA_AGULHAS,South
2017-12-20T04:00:28Z,1513742429,2017,4,0,354.167,354.167,-61.3968,-0.083,976.6,-1.09,-999.0,yes,yes,no,300234063479520,BD2GI,AOML,SA_AGULHAS,South
2017-12-20T04:59:31Z,1513745971,2017,5,0,354.208,354.208,-61.3976,-0.073,976.2,-1.09,-999.0,yes,yes,no,300234063479520,BD2GI,AOML,SA_AGULHAS,South
2017-12-20T06:00:00Z,1513749600,2017,6,0,354.25,354.25,-61.3962,-0.063,975.6,-1.09,-999.0,yes,yes,no,300234063479520,BD2GI,AOML,SA_AGULHAS,South
2017-12-20T07:00:28Z,1513753229,2017,7,0,354.292,354.292,-61.3958,-0.0556,975.2,-1.09,-999.0,yes,yes,no,300234063479520,BD2GI,AOML,SA_AGULHAS,South
2017-12-20T07:59:31Z,1513756771,2017,8,0,354.333,354.333,-61.3962,-0.0498,974.7,-1.06,-999.0,yes,yes,no,300234063479520,BD2GI,AOML,SA_AGULHAS,South
2017-12-20T09:00:00Z,1513760400,2017,9,0,354.375,354.375,-61.3964,-0.0444,974.3,-1.06,-999.0,yes,yes,no,300234063479520,BD2GI,AOML,SA_AGULHAS,South
2017-12-20T10:00:28Z,1513764029,2017,10,0,354.417,354.417,-61.3962,-0.0424,974.0,-1.06,-999.0,yes,yes,no,300234063479520,BD2GI,AOML,SA_AGULHAS,South
2017-12-20T10:59:31Z,1513767571,2017,11,0,354.458,354.458,-61.3974,-0.0422,973.8,-1.06,-999.0,yes,yes,no,300234063479520,BD2GI,AOML,SA_AGULHAS,South
2017-12-20T12:00:00Z,1513771200,2017,12,0,354.5,354.5,-61.3982,-0.0442,973.5,-1.06,-999.0,yes,yes,no,300234063479520,BD2GI,AOML,SA_AGULHAS,South
2017-12-20T13:00:28Z,1513774829,2017,13,0,354.542,354.542,-61.3994,-0.0484,973.5,-1.02,-999.0,yes,yes,no,300234063479520,BD2GI,AOML,SA_AGULHAS,South
2017-12-20T13:59:31Z,1513778371,2017,14,0,354.583,354.583,-61.4026,-0.0546,973.8,-1.02,-999.0,yes,yes,no,300234063479520,BD2GI,AOML,SA_AGULHAS,South
2017-12-20T15:00:00Z,1513782000,2017,15,0,354.625,354.625,-61.4054,-0.0582,974.6,-1.02,-999.0,yes,yes,no,300234063479520,BD2GI,AOML,SA_AGULHAS,South
2017-12-20T16:00:28Z,1513785629,2017,16,0,354.667,354.667,-61.4072,-0.0596,975.6,-1.02,-999.0,yes,yes,no,300234063479520,BD2GI,AOML,SA_AGULHAS,South
2017-12-20T16:59:31Z,1513789171,2017,17,0,354.708,354.708,-61.4092,-0.0622,976.4,-1.02,-999.0,yes,yes,no,300234063479520,BD2GI,AOML,SA_AGULHAS,South
2017-12-20T18:00:00Z,1513792800,2017,18,0,354.75,354.75,-61.4098,-0.0632,977.2,-1.02,-999.0,yes,yes,no,300234063479520,BD2GI,AOML,SA_AGULHAS,South
2017-12-20T19:00:28Z,1513796429,2017,19,0,354.792,354.792,-61.4082,-0.0622,978.0,-1.02,-999.0,yes,yes,no,300234063479520,BD2GI,AOML,SA_AGULHAS,South
2017-12-20T19:59:31Z,1513799971,2017,20,0,354.833,354.833,-61.4054,-0.0636,978.6,-1.02,-999.0,yes,yes,no,300234063479520,BD2GI,AOML,SA_AGULHAS,South
2017-12-20T21:00:00Z,1513803600,2017,21,0,354.875,354.875,-61.402,-0.0686,978.9,-1.06,-999.0,yes,yes,no,300234063479520,BD2GI,AOML,SA_AGULHAS,South
2017-12-20T22:00:28Z,1513807229,2017,22,0,354.917,354.917,-61.3978,-0.0762,979.2,-1.06,-999.0,yes,yes,no,300234063479520,BD2GI,AOML,SA_AGULHAS,South
2017-12-20T22:59:31Z,1513810771,2017,23,0,354.958,354.958,-61.3948,-0.0832,979.4,-1.06,-999.0,yes,yes,no,300234063479520,BD2GI,AOML,SA_AGULHAS,South
2017-12-21T00:00:00Z,1513814400,2017,0,0,355.0,355.0,-61.3912,-0.0868,979.1,-1.06,-999.0,yes,yes,no,300234063479520,BD2GI,AOML,SA_AGULHAS,South
2017-12-21T01:00:28Z,1513818029,2017,1,0,355.042,355.042,-61.3872,-0.0914,978.8,-1.06,-999.0,yes,yes,no,300234063479520,BD2GI,AOML,SA_AGULHAS,South
2017-12-21T01:59:31Z,1513821571,2017,2,0,355.083,355.083,-61.3832,-0.097,978.7,-1.06,-999.0,yes,yes,no,300234063479520,BD2GI,AOML,SA_AGULHAS,South
2017-12-21T03:00:00Z,1513825200,2017,3,0,355.125,355.125,-61.3802,-0.1032,978.1,-1.06,-999.0,yes,yes,no,300234063479520,BD2GI,AOML,SA_AGULHAS,South
2017-12-21T04:00:28Z,1513828829,2017,4,0,355.167,355.167,-61.3782,-0.109,977.7,-1.06,-999.0,yes,yes,no,300234063479520,BD2GI,AOML,SA_AGULHAS,South
2017-12-21T04:59:31Z,1513832371,2017,5,0,355.208,355.208,-61.3774,-0.116,977.4,-1.06,-999.0,yes,yes,no,300234063479520,BD2GI,AOML,SA_AGULHAS,South
2017-12-21T06:00:00Z,1513836000,2017,6,0,355.25,355.25,-61.3786,-0.1168,977.3,-1.06,-999.0,yes,yes,no,300234063479520,BD2GI,AOML,SA_AGULHAS,South
2017-12-21T07:00:28Z,1513839629,2017,7,0,355.292,355.292,-61.3784,-0.1136,977.1,-1.02,-999.0,yes,yes,no,300234063479520,BD2GI,AOML,SA_AGULHAS,South
2017-12-21T07:59:31Z,1513843171,2017,8,0,355.333,355.333,-61.378,-0.1044,977.3,-1.02,-999.0,yes,yes,no,300234063479520,BD2GI,AOML,SA_AGULHAS,South
2017-12-21T09:00:00Z,1513846800,2017,9,0,355.375,355.375,-61.3758,-0.0934,977.6,-0.99,-999.0,yes,yes,no,300234063479520,BD2GI,AOML,SA_AGULHAS,South
2017-12-21T10:00:28Z,1513850429,2017,10,0,355.417,355.417,-61.3724,-0.084,977.7,-0.95,-999.0,yes,yes,no,300234063479520,BD2GI,AOML,SA_AGULHAS,South
2017-12-21T10:59:31Z,1513853971,2017,11,0,355.458,355.458,-61.3694,-0.075,977.8,-0.88,-999.0,yes,yes,no,300234063479520,BD2GI,AOML,SA_AGULHAS,South
2017-12-21T12:00:00Z,1513857600,2017,12,0,355.5,355.5,-61.3662,-0.0684,977.6,-0.82,-999.0,yes,yes,no,300234063479520,BD2GI,AOML,SA_AGULHAS,South
2017-12-21T13:00:28Z,1513861229,2017,13,0,355.542,355.542,-61.3638,-0.0674,977.6,-0.82,-999.0,yes,yes,no,300234063479520,BD2GI,AOML,SA_AGULHAS,South
2017-12-21T13:59:31Z,1513864771,2017,14,0,355.583,355.583,-61.3622,-0.0676,977.7,-0.78,-999.0,yes,yes,no,300234063479520,BD2GI,AOML,SA_AGULHAS,South
2017-12-21T15:00:00Z,1513868400,2017,15,0,355.625,355.625,-61.3632,-0.0722,977.5,-0.71,-999.0,yes,yes,no,300234063479520,BD2GI,AOML,SA_AGULHAS,South
2017-12-21T16:00:28Z,1513872029,2017,16,0,355.667,355.667,-61.3644,-0.0786,977.3,-0.71,-999.0,yes,yes,no,300234063479520,BD2GI,AOML,SA_AGULHAS,South
2017-12-21T16:59:31Z,1513875571,2017,17,0,355.708,355.708,-61.3684,-0.085,977.2,-0.68,-999.0,yes,yes,no,300234063479520,BD2GI,AOML,SA_AGULHAS,South
2017-12-21T18:00:00Z,1513879200,2017,18,0,355.75,355.75,-61.3728,-0.0912,977.2,-0.68,-999.0,yes,yes,no,300234063479520,BD2GI,AOML,SA_AGULHAS,South
2017-12-21T19:00:28Z,1513882829,2017,19,0,355.792,355.792,-61.3772,-0.0958,977.3,-0.68,-999.0,yes,yes,no,300234063479520,BD2GI,AOML,SA_AGULHAS,South
2017-12-21T19:59:31Z,1513886371,2017,20,0,355.833,355.833,-61.3804,-0.0998,977.4,-0.68,-999.0,yes,yes,no,300234063479520,BD2GI,AOML,SA_AGULHAS,South
2017-12-21T21:00:00Z,1513890000,2017,21,0,355.875,355.875,-61.3826,-0.102,977.6,-0.68,-999.0,yes,yes,no,300234063479520,BD2GI,AOML,SA_AGULHAS,South
2017-12-21T22:00:28Z,1513893629,2017,22,0,355.917,355.917,-61.384,-0.1014,977.7,-0.71,-999.0,yes,yes,no,300234063479520,BD2GI,AOML,SA_AGULHAS,South
2017-12-21T22:59:31Z,1513897171,2017,23,0,355.958,355.958,-61.3838,-0.1006,977.7,-0.71,-999.0,yes,yes,no,300234063479520,BD2GI,AOML,SA_AGULHAS,South
2017-12-22T00:00:00Z,1513900800,2017,0,0,356.0,356.0,-61.3808,-0.0998,977.6,-0.71,-999.0,yes,yes,no,300234063479520,BD2GI,AOML,SA_AGULHAS,South
2017-12-22T01:00:28Z,1513904429,2017,1,0,356.042,356.042,-61.3758,-0.102,977.5,-0.71,-999.0,yes,yes,no,300234063479520,BD2GI,AOML,SA_AGULHAS,South
2017-12-22T01:59:31Z,1513907971,2017,2,0,356.083,356.083,-61.371,-0.107,977.3,-0.71,-999.0,yes,yes,no,300234063479520,BD2GI,AOML,SA_AGULHAS,South
2017-12-22T03:00:00Z,1513911600,2017,3,0,356.125,356.125,-61.366,-0.1144,977.3,-0.75,-999.0,yes,yes,no,300234063479520,BD2GI,AOML,SA_AGULHAS,South
2017-12-22T04:00:28Z,1513915229,2017,4,0,356.167,356.167,-61.3618,-0.121,977.4,-0.88,-999.0,yes,yes,no,300234063479520,BD2GI,AOML,SA_AGULHAS,South
2017-12-22T04:59:31Z,1513918771,2017,5,0,356.208,356.208,-61.3574,-0.1318,977.4,-0.92,-999.0,yes,yes,no,300234063479520,BD2GI,AOML,SA_AGULHAS,South
2017-12-22T06:00:00Z,1513922400,2017,6,0,356.25,356.25,-61.356,-0.1408,977.6,-0.85,-999.0,yes,yes,no,300234063479520,BD2GI,AOML,SA_AGULHAS,South
2017-12-22T07:00:28Z,1513926029,2017,7,0,356.292,356.292,-61.3552,-0.1466,977.8,-0.85,-999.0,yes,yes,no,300234063479520,BD2GI,AOML,SA_AGULHAS,South
2017-12-22T07:59:31Z,1513929571,2017,8,0,356.333,356.333,-61.3548,-0.1482,978.2,-0.88,-999.0,yes,yes,no,300234063479520,BD2GI,AOML,SA_AGULHAS,South
2017-12-22T09:00:00Z,1513933200,2017,9,0,356.375,356.375,-61.355,-0.148,978.4,-0.82,-999.0,yes,yes,no,300234063479520,BD2GI,AOML,SA_AGULHAS,South
2017-12-22T10:00:28Z,1513936829,2017,10,0,356.417,356.417,-61.3558,-0.1442,978.7,-0.82,-999.0,yes,yes,no,300234063479520,BD2GI,AOML,SA_AGULHAS,South
2017-12-22T10:59:31Z,1513940371,2017,11,0,356.458,356.458,-61.357,-0.135,978.8,-0.88,-999.0,yes,yes,no,300234063479520,BD2GI,AOML,SA_AGULHAS,South
2017-12-22T12:00:00Z,1513944000,2017,12,0,356.5,356.5,-61.3576,-0.1202,979.1,-0.92,-999.0,yes,yes,no,300234063479520,BD2GI,AOML,SA_AGULHAS,South
2017-12-22T13:00:28Z,1513947629,2017,13,0,356.542,356.542,-61.3564,-0.106,979.2,-0.85,-999.0,yes,yes,no,300234063479520,BD2GI,AOML,SA_AGULHAS,South
2017-12-22T13:59:31Z,1513951171,2017,14,0,356.583,356.583,-61.3542,-0.094,979.6,-0.82,-999.0,yes,yes,no,300234063479520,BD2GI,AOML,SA_AGULHAS,South
2017-12-22T15:00:00Z,1513954800,2017,15,0,356.625,356.625,-61.3522,-0.0878,979.8,-0.75,-999.0,yes,yes,no,300234063479520,BD2GI,AOML,SA_AGULHAS,South
2017-12-22T16:00:28Z,1513958429,2017,16,0,356.667,356.667,-61.3492,-0.084,980.1,-0.75,-999.0,yes,yes,no,300234063479520,BD2GI,AOML,SA_AGULHAS,South
2017-12-22T16:59:31Z,1513961971,2017,17,0,356.708,356.708,-61.3482,-0.0858,980.2,-0.75,-999.0,yes,yes,no,300234063479520,BD2GI,AOML,SA_AGULHAS,South
2017-12-22T18:00:00Z,1513965600,2017,18,0,356.75,356.75,-61.3494,-0.0882,980.6,-0.75,-999.0,yes,yes,no,300234063479520,BD2GI,AOML,SA_AGULHAS,South
2017-12-22T19:00:28Z,1513969229,2017,19,0,356.792,356.792,-61.3504,-0.0924,980.9,-0.78,-999.0,yes,yes,no,300234063479520,BD2GI,AOML,SA_AGULHAS,South
2017-12-22T19:59:31Z,1513972771,2017,20,0,356.833,356.833,-61.3528,-0.101,981.2,-0.78,-999.0,yes,yes,no,300234063479520,BD2GI,AOML,SA_AGULHAS,South
2017-12-22T21:00:00Z,1513976400,2017,21,0,356.875,356.875,-61.3564,-0.1094,981.6,-0.78,-999.0,yes,yes,no,300234063479520,BD2GI,AOML,SA_AGULHAS,South
2017-12-22T22:00:28Z,1513980029,2017,22,0,356.917,356.917,-61.3612,-0.1166,981.8,-0.82,-999.0,yes,yes,no,300234063479520,BD2GI,AOML,SA_AGULHAS,South
2017-12-22T22:59:31Z,1513983571,2017,23,0,356.958,356.958,-61.366,-0.12,982.1,-0.82,-999.0,yes,yes,no,300234063479520,BD2GI,AOML,SA_AGULHAS,South
2017-12-23T00:00:00Z,1513987200,2017,0,0,357.0,357.0,-61.3718,-0.122,982.0,-0.82,-999.0,yes,yes,no,300234063479520,BD2GI,AOML,SA_AGULHAS,South
2017-12-23T01:00:28Z,1513990829,2017,1,0,357.042,357.042,-61.3748,-0.1204,982.1,-0.82,-999.0,yes,yes,no,300234063479520,BD2GI,AOML,SA_AGULHAS,South
2017-12-23T01:59:31Z,1513994371,2017,2,0,357.083,357.083,-61.376,-0.118,982.4,-0.78,-999.0,yes,yes,no,300234063479520,BD2GI,AOML,SA_AGULHAS,South
2017-12-23T03:00:00Z,1513998000,2017,3,0,357.125,357.125,-61.376,-0.1164,982.5,-0.78,-999.0,yes,yes,no,300234063479520,BD2GI,AOML,SA_AGULHAS,South